Location: G�migny
(47.9646°N, 1.6950°E)
Time: 14:40:06
(UTC+00:00)

YAOGAN 6 - Pass Details

Date: 31 January 2020
Orbit: 465 x 505 km, 97.0° (Epoch: 28 February)

Event Time Altitude Azimuth Distance (km) Brightness Sun altitude
Rises 18:35:18 0° 196° (SSW) 2,575 6.5 -17.5°
Reaches altitude 10° 18:37:41 10° 210° (SSW) 1,691 5.8 -17.9°
Maximum altitude 18:40:40 24° 266° (W) 1,064 5.2 -18.4°
Drops below altitude 10° 18:43:40 10° 321° (NW) 1,685 5.7 -18.9°
Sets 18:46:01 0° 336° (NNW) 2,563 6.5 -19.3°
